Location: La Tine
(46.4708°N, 7.0525°E)
Time: 06:56:34
(UTC+00:00)

SJ-11-01 - Pass Details

Date: 18 September 2020
Orbit: 684 x 701 km, 98.0° (Epoch: 24 October)

Event Time Altitude Azimuth Distance (km) Brightness Sun altitude
Rises 18:03:14 0° 151° (SSE) 3,068 7.3 -5.4°
Reaches altitude 10° 18:05:31 10° 147° (SSE) 2,152 6.5 -5.8°
Maximum altitude 18:10:06 53° 71° (ENE) 855 4.5 -6.5°
Drops below altitude 10° 18:14:41 10° 356° (N) 2,157 7.0 -7.3°
Sets 18:16:58 0° 351° (N) 3,076 7.9 -7.7°
